KF6ILA Weather Reports


time (UTC)temp
C
wind
direction
speed
KPH
gust
KPH
rain 1hr
cm
rain 24hr
cm
rain mn
cm
humidity
%
barometer
mb
20260831053523 20 258 16.1 30.6 0.00 0.00 0.00 38 1014.6
20260831053026 20 257 20.9 30.6 0.00 0.00 0.00 38 1014.6
20260831051535 20 255 19.3 33.8 0.00 0.00 0.00 41 1015.3
20260831051038 20 259 22.5 33.8 0.00 0.00 0.00 41 1015.3
20260831050541 20 255 19.3 32.2 0.00 0.00 0.00 43 1015.2
20260831044553 20 254 22.5 30.6 0.00 0.00 0.00 47 1015.3
20260831044056 20 254 20.9 30.6 0.00 0.00 0.00 49 1015.4
20260831042108 20 249 20.9 32.2 0.00 0.00 0.00 57 1015.2
20260831041611 20 251 17.7 32.2 0.00 0.00 0.00 58 1015.2
20260831041114 20 259 22.5 32.2 0.00 0.00 0.00 59 1015.2
20260831040617 19 258 19.3 30.6 0.00 0.00 0.00 59 1015.1
20260831033635 20 258 19.3 33.8 0.00 0.00 0.00 64 1014.8
20260831032641 20 257 22.5 32.2 0.00 0.00 0.00 63 1014.5
20260831032144 19 248 20.9 32.2 0.00 0.00 0.00 65 1014.6
20260831031647 19 255 20.9 29.0 0.00 0.00 0.00 66 1014.5
20260831030653 20 247 22.5 30.6 0.00 0.00 0.00 67 1014.5
20260831030156 20 254 20.9 37.0 0.00 0.00 0.00 67 1014.5
20260831025659 20 249 22.5 37.0 0.00 0.00 0.00 67 1014.5
20260831024208 20 256 24.1 33.8 0.00 0.00 0.00 66 1014.5
20260831023711 20 255 20.9 32.2 0.00 0.00 0.00 65 1014.5
20260831023214 20 260 22.5 30.6 0.00 0.00 0.00 64 1014.5
20260831022717 20 267 24.1 32.2 0.00 0.00 0.00 63 1014.4
20260831022220 21 265 22.5 35.4 0.00 0.00 0.00 62 1014.5
20260831021723 21 266 24.1 35.4 0.00 0.00 0.00 61 1014.4
20260831020232 22 258 25.7 35.4 0.00 0.00 0.00 56 1014.2
20260831015735 22 256 19.3 40.2 0.00 0.00 0.00 54 1014.2
20260831015238 22 267 17.7 40.2 0.00 0.00 0.00 53 1014.1
20260831014741 22 256 30.6 40.2 0.00 0.00 0.00 51 1014.1
20260831014244 22 259 30.6 40.2 0.00 0.00 0.00 50 1014.1
20260831013747 23 257 30.6 40.2 0.00 0.00 0.00 48 1014.0
20260831013250 23 259 27.4 40.2 0.00 0.00 0.00 47 1014.1
20260831012753 23 262 30.6 43.5 0.00 0.00 0.00 46 1014.1
20260831012256 23 263 30.6 43.5 0.00 0.00 0.00 44 1014.1
20260831011759 23 256 30.6 43.5 0.00 0.00 0.00 44 1014.1
20260831011302 24 259 29.0 43.5 0.00 0.00 0.00 44 1014.0
20260831010805 24 257 27.4 41.8 0.00 0.00 0.00 42 1014.0
20260831010308 25 260 30.6 40.2 0.00 0.00 0.00 40 1014.1
20260831005811 25 271 24.1 35.4 0.00 0.00 0.00 40 1014.2
20260831004817 25 266 24.1 40.2 0.00 0.00 0.00 39 1014.2
20260831004320 26 281 27.4 40.2 0.00 0.00 0.00 38 1014.3
20260831003823 26 267 17.7 33.8 0.00 0.00 0.00 38 1014.2
20260831003326 26 281 14.5 40.2 0.00 0.00 0.00 39 1014.2
20260831002829 26 272 22.5 40.2 0.00 0.00 0.00 38 1014.3
20260831002332 26 267 24.1 35.4 0.00 0.00 0.00 36 1014.4
20260831001835 26 266 20.9 35.4 0.00 0.00 0.00 36 1014.5
20260831001338 26 255 17.7 37.0 0.00 0.00 0.00 35 1014.6
20260831000841 26 258 27.4 38.6 0.00 0.00 0.00 33 1014.3
20260831000344 26 267 20.9 38.6 0.00 0.00 0.00 33 1014.4
20260830235847 26 261 27.4 38.6 0.00 0.00 0.00 32 1014.5
20260830235350 27 257 19.3 38.6 0.00 0.00 0.00 32 1014.6
20260830234853 27 264 25.7 38.6 0.00 0.00 0.00 31 1014.6
20260830234356 27 262 22.5 37.0 0.00 0.00 0.00 32 1014.7
20260830233859 27 255 20.9 37.0 0.00 0.00 0.00 31 1014.8
20260830233402 27 244 22.5 37.0 0.00 0.00 0.00 30 1014.7
20260830232408 27 261 17.7 38.6 0.00 0.00 0.00 31 1014.7
20260830231911 27 277 27.4 37.0 0.00 0.00 0.00 32 1014.5
20260830231414 27 271 25.7 38.6 0.00 0.00 0.00 31 1014.6
20260830230917 27 257 25.7 40.2 0.00 0.00 0.00 31 1014.7
20260830225923 28 241 24.1 38.6 0.00 0.00 0.00 32 1014.9
20260830225426 28 265 20.9 38.6 0.00 0.00 0.00 32 1015.0
20260830224929 28 269 20.9 35.4 0.00 0.00 0.00 31 1014.9
20260830222941 28 293 17.7 35.4 0.00 0.00 0.00 32 1015.2
20260830222444 28 255 20.9 33.8 0.00 0.00 0.00 32 1015.2
20260830221947 28 259 20.9 33.8 0.00 0.00 0.00 32 1015.1
20260830221450 28 252 20.9 33.8 0.00 0.00 0.00 32 1015.1
20260830220953 28 292 20.9 38.6 0.00 0.00 0.00 32 1015.1
20260830220456 29 245 19.3 38.6 0.00 0.00 0.00 33 1015.2
20260830215959 30 284 20.9 32.2 0.00 0.00 0.00 32 1015.2
20260830215502 29 268 9.7 29.0 0.00 0.00 0.00 33 1015.2
20260830214508 28 245 22.5 37.0 0.00 0.00 0.00 34 1015.3
20260830214011 28 292 19.3 35.4 0.00 0.00 0.00 34 1015.4
20260830213017 29 255 16.1 32.2 0.00 0.00 0.00 34 1015.5
20260830212023 29 288 24.1 38.6 0.00 0.00 0.00 34 1015.6
20260830211526 29 260 12.9 29.0 0.00 0.00 0.00 35 1015.6
20260830210532 29 289 19.3 41.8 0.00 0.00 0.00 34 1015.7
20260830205538 30 288 17.7 30.6 0.00 0.00 0.00 34 1015.8
20260830204544 29 273 14.5 33.8 0.00 0.00 0.00 34 1015.8
20260830204047 29 226 19.3 33.8 0.00 0.00 0.00 34 1015.9
20260830202556 29 218 19.3 32.2 0.00 0.00 0.00 33 1016.0
20260830202059 29 224 22.5 32.2 0.00 0.00 0.00 35 1016.0
20260830201602 29 239 16.1 30.6 0.00 0.00 0.00 36 1016.2
20260830201105 29 236 17.7 32.2 0.00 0.00 0.00 36 1016.1
20260830200111 29 238 16.1 32.2 0.00 0.00 0.00 35 1016.1
20260830195614 29 236 19.3 32.2 0.00 0.00 0.00 35 1016.0
20260830194620 29 221 19.3 29.0 0.00 0.00 0.00 34 1016.2
20260830194123 30 238 16.1 30.6 0.00 0.00 0.00 33 1016.1
20260830193129 30 212 16.1 25.7 0.00 0.00 0.00 33 1016.3
20260830192135 29 203 11.3 32.2 0.00 0.00 0.00 33 1016.2
20260830190644 29 229 19.3 32.2 0.00 0.00 0.00 32 1016.4
20260830185650 28 276 14.5 25.7 0.00 0.00 0.00 33 1016.5
20260830185153 28 248 16.1 25.7 0.00 0.00 0.00 33 1016.6
20260830182708 28 243 14.5 25.7 0.00 0.00 0.00 33 1016.8
20260830181714 28 267 11.3 24.1 0.00 0.00 0.00 32 1016.9
20260830181217 28 252 12.9 24.1 0.00 0.00 0.00 32 1016.9
20260830180720 28 226 8.0 24.1 0.00 0.00 0.00 31 1016.9
20260830180223 28 229 6.4 27.4 0.00 0.00 0.00 31 1016.8
20260830174732 28 243 14.5 27.4 0.00 0.00 0.00 30 1016.7
20260830173738 27 223 14.5 35.4 0.00 0.00 0.00 30 1016.7
20260830173241 27 203 16.1 35.4 0.00 0.00 0.00 29 1016.7
20260830172247 27 232 14.5 25.7 0.00 0.00 0.00 31 1016.4
20260830171253 27 205 16.1 24.1 0.00 0.00 0.00 31 1016.4
20260830165802 27 246 11.3 19.3 0.00 0.00 0.00
20260830165306 27 252 12.9 24.1 0.00 0.00 0.00 34 1016.3
20260830164311 26 277 11.3 24.1 0.00 0.00 0.00 35 1016.2
20260830163814 26 283 8.0 20.9 0.00 0.00 0.00 36 1016.2
20260830163317 26 223 8.0 27.4 0.00 0.00 0.00 37 1016.1
20260830162323 25 275 19.3 27.4 0.00 0.00 0.00 37 1016.0
20260830161826 25 259 12.9 24.1 0.00 0.00 0.00 39 1015.7
20260830161329 25 265 14.5 27.4 0.00 0.00 0.00 39 1015.8
20260830160832 25 244 16.1 32.2 0.00 0.00 0.00 39 1015.7
20260830160336 25 261 19.3 33.8 0.00 0.00 0.00 39 1015.8
20260830155838 25 254 19.3 33.8 0.00 0.00 0.00 40 1015.7
20260830154844 24 254 17.7 33.8 0.00 0.00 0.00 41 1015.7
20260830153353 23 255 17.7 32.2 0.00 0.00 0.00 42 1015.6
20260830151902 23 266 24.1 33.8 0.00 0.00 0.00 43 1015.3
20260830151405 23 256 19.3 32.2 0.00 0.00 0.00 44 1015.3
20260830150908 23 259 19.3 32.2 0.00 0.00 0.00 44 1015.3
20260830150411 23 250 20.9 29.0 0.00 0.00 0.00 44 1015.4
20260830145914 22 256 20.9 29.0 0.00 0.00 0.00 44 1015.4
20260830145417 22 257 22.5 30.6 0.00 0.00 0.00 45 1015.5
20260830144423 22 260 17.7 29.0 0.00 0.00 0.00 46 1015.5
20260830142932 21 263 20.9 30.6 0.00 0.00 0.00 47 1015.4
20260830142435 21 254 20.9 30.6 0.00 0.00 0.00 47 1015.4
20260830141938 21 255 16.1 29.0 0.00 0.00 0.00 47 1015.5
20260830141441 21 254 17.7 29.0 0.00 0.00 0.00 47 1015.4
20260830135950 21 256 19.3 27.4 0.00 0.00 0.00 48 1015.2
20260830135453 21 264 20.9 30.6 0.00 0.00 0.00 48 1015.2
20260830134459 21 258 20.9 30.6 0.00 0.00 0.00 48 1015.0
20260830134002 21 251 20.9 30.6 0.00 0.00 0.00 48 1015.0
20260830133008 21 256 20.9 30.6 0.00 0.00 0.00 49 1014.9
20260830132511 21 254 17.7 30.6 0.00 0.00 0.00 49 1014.8
20260830131517 21 255 19.3 33.8 0.00 0.00 0.00 50 1014.8
20260830125529 21 250 19.3 33.8 0.00 0.00 0.00 51 1014.7
20260830124535 21 248 19.3 33.8 0.00 0.00 0.00 52 1014.7
20260830124038 21 254 22.5 33.8 0.00 0.00 0.00 52 1014.6
20260830122547 21 255 20.9 33.8 0.00 0.00 0.00 52 1014.7
20260830122050 21 259 24.1 33.8 0.00 0.00 0.00 52 1014.7
20260830121056 20 264 19.3 32.2 0.00 0.00 0.00 53 1014.6
20260830115605 20 264 19.3 32.2 0.00 0.00 0.00 52 1014.7
20260830115108 20 268 17.7 30.6 0.00 0.00 0.00 52 1014.5
20260830113617 20 264 20.9 40.2 0.00 0.00 0.00 52 1014.6
20260830113120 20 269 20.9 40.2 0.00 0.00 0.00 52 1014.5
20260830112126 20 260 20.9 33.8 0.00 0.00 0.00 53 1014.6
20260830111629 20 260 20.9 33.8 0.00 0.00 0.00 53 1014.4
20260830110635 20 256 20.9 35.4 0.00 0.00 0.00 53 1014.4
20260830110138 20 260 20.9 37.0 0.00 0.00 0.00 53 1014.4
20260830104647 20 258 25.7 38.6 0.00 0.00 0.00 54 1014.4
20260830103653 20 262 27.4 38.6 0.00 0.00 0.00 54 1014.3
20260830103156 20 259 27.4 38.6 0.00 0.00 0.00 54 1014.3
20260830101208 20 256 29.0 41.8 0.00 0.00 0.00 56 1014.2
20260830100711 20 257 29.0 41.8 0.00 0.00 0.00 56 1014.0
20260830095717 20 260 27.4 43.5 0.00 0.00 0.00 56 1014.1
20260830095220 20 257 25.7 43.5 0.00 0.00 0.00 56 1014.2
20260830094723 20 260 25.7 40.2 0.00 0.00 0.00 56 1014.1
20260830094226 20 260 29.0 43.5 0.00 0.00 0.00 56 1014.2
20260830093729 20 263 27.4 43.5 0.00 0.00 0.00 56 1014.0
20260830092735 20 257 27.4 38.6 0.00 0.00 0.00 56 1014.2
20260830091741 20 259 24.1 37.0 0.00 0.00 0.00 56 1014.2
20260830091244 20 259 20.9 33.8 0.00 0.00 0.00 55 1014.3
20260830090747 21 257 22.5 33.8 0.00 0.00 0.00 55 1014.3
20260830085753 21 254 24.1 37.0 0.00 0.00 0.00 54 1014.4
20260830085256 21 255 22.5 37.0 0.00 0.00 0.00 54 1014.4
20260830084759 21 261 25.7 35.4 0.00 0.00 0.00 53 1014.4
20260830084302 21 257 25.7 35.4 0.00 0.00 0.00 53 1014.3
20260830083308 21 258 22.5 33.8 0.00 0.00 0.00 52 1014.5
20260830082811 21 254 20.9 35.4 0.00 0.00 0.00 52 1014.6
20260830082314 21 251 20.9 35.4 0.00 0.00 0.00 52 1014.7
20260830081817 21 253 24.1 35.4 0.00 0.00 0.00 52 1014.6
20260830081320 21 256 25.7 35.4 0.00 0.00 0.00 52 1014.7
20260830080326 21 246 24.1 35.4 0.00 0.00 0.00 51 1014.6
20260830075829 21 247 27.4 35.4 0.00 0.00 0.00 51 1014.8
20260830075332 21 251 24.1 33.8 0.00 0.00 0.00 51 1014.8
20260830074835 21 248 24.1 32.2 0.00 0.00 0.00 51 1014.8
20260830073841 21 242 19.3 33.8 0.00 0.00 0.00 50 1014.9
20260830073344 21 252 24.1 33.8 0.00 0.00 0.00 50 1014.9
20260830072847 21 250 24.1 35.4 0.00 0.00 0.00 50 1015.0
20260830072350 21 251 24.1 35.4 0.00 0.00 0.00 50 1015.0
20260830071853 21 252 22.5 37.0 0.00 0.00 0.00 50 1015.1
20260830071356 21 247 20.9 37.0 0.00 0.00 0.00 50 1015.1
20260830070859 21 247 19.3 32.2 0.00 0.00 0.00 50 1015.1
20260830065905 21 256 22.5 32.2 0.00 0.00 0.00 49 1015.1
20260830065408 22 254 24.1 32.2 0.00 0.00 0.00 49 1015.1
20260830064414 21 245 22.5 29.0 0.00 0.00 0.00 49 1015.1
20260830063917 22 247 20.9 29.0 0.00 0.00 0.00 49 1015.0
20260830062923 22 248 20.9 27.4 0.00 0.00 0.00 49 1015.9
20260830061929 21 253 19.3 27.4 0.00 0.00 0.00 50 1015.9
20260830061432 21 250 17.7 25.7 0.00 0.00 0.00 50 1015.9
20260830055941 21 241 19.3 24.1 0.00 0.00 0.00 51 1016.1
20260830054947 21 243 16.1 20.9 0.00 0.00 0.00 53 1015.9